Temperature
14 14 14 14 14 14 14 15 15 15 15 15 15 15 15 15 15 15 15 15 15 15 15 15 15 15 15 16 16 16 16 16 16 16 16 16 16 16
14 14 14 14 14 14 14 14 15 15 15 14 14 14 14 14 14 14 14 14 14 14 14 14 14 15 15 15 15 15 15 16 16 16 16 15 15 15
14 14 14 14 14 14 14 14 14 15 14 14 14 14 13 14 13 13 13 13 13 13 13 14 14 14 14 14 14 14 15 15 15 15 15 15 14 14
14 14 14 14 14 14 14 14 14 14 14 13 13 13 13 13 13 13 12 12 13 13 13 13 13 13 13 13 13 14 14 14 14 14 14 14 14 14
13 14 14 14 14 14 14 14 14 14 14 14 13 13 13 12 12 12 12 12 12 12 12 12 12 12 12 13 13 13 13 13 13 13 13 13 13 13
13 13 13 13 13 14 14 14 14 13 13 13 13 12 12 12 12 12 11 11 11 11 12 12 12 12 12 12 12 12 12 12 12 12 12 12 12 12
13 13 13 13 13 13 13 13 13 13 13 13 12 12 12 11 11 11 11 11 11 11 11 11 11 11 11 11 12 12 12 12 12 12 12 12 12 12
12 13 13 13 13 13 13 13 13 13 13 12 12 12 11 11 11 11 11 11 11 11 11 10 11 11 11 11 11 11 11 11 11 11 12 12 12 12
12 12 12 12 12 12 12 12 12 12 13 13 12 12 12 11 11 12 12 12 11 11 11 10 10 10 10 10 10 11 11 11 11 11 11 11 11 11
12 12 12 12 12 12 12 12 12 12 12 12 12 11 12 11 12 12 12 12 12 11 11 11 10 10 10 10 10 10 10 10 10 10 10 10 10 10
11 11 11 11 11 11 11 11 11 11 11 11 11 11 11 11 11 12 12 12 11 11 11 11 10 10 10 9 9 9 9 9 9 9 9 9 9 9
10 11 11 11 11 11 11 11 11 11 11 11 11 11 11 11 11 12 12 12 12 11 11 11 11 10 9 9 9 9 9 9 9 9 9 9 9 9
10 10 10 10 11 10 11 11 11 11 11 11 11 11 11 11 11 12 12 12 12 11 11 11 11 11 10 10 9 9 9 9 8 8 8 8 8 8
10 10 10 10 10 10 10 11 11 11 10 10 10 10 10 11 11 11 12 12 12 11 11 11 11 11 11 10 10 9 9 9 8 8 8 8 8 8
10 10 10 10 10 10 10 10 10 10 10 10 10 10 10 10 11 11 11 11 11 11 11 11 11 11 11 10 10 10 9 9 8 8 8 8 7 7
9 9 10 10 10 10 10 10 10 11 11 11 10 10 10 10 10 10 10 11 10 10 10 10 10 10 10 10 10 9 9 9 8 8 8 8 7 7
9 9 9 9 9 10 10 10 11 11 11 11 10 10 10 10 10 10 10 10 10 10 10 10 10 10 10 10 10 9 9 9 8 8 8 8 8 7
9 9 9 9 9 10 10 10 11 11 11 11 10 10 10 10 10 10 10 10 10 10 10 10 10 10 10 10 9 9 9 9 8 8 8 8 8 7
8 9 9 10 10 10 10 10 11 11 11 11 11 11 11 10 10 11 11 11 11 10 10 10 10 10 10 9 9 9 9 9 8 8 8 8 8 8
9 9 10 10 10 11 11 11 11 11 11 11 11 11 11 11 11 11 11 11 11 10 10 10 10 10 10 10 9 9 9 9 9 8 8 8 8 8
10 10 11 11 11 11 11 11 11 11 11 11 11 11 11 11 11 11 11 11 11 11 10 10 10 10 10 10 10 9 9 9 9 9 8 8 8 7
10 11 11 11 12 12 12 11 11 11 11 11 11 11 11 11 11 11 11 11 11 11 11 10 10 10 10 10 10 10 10 10 9 9 9 8 8 8
11 11 12 12 12 12 12 11 11 11 11 11 11 11 11 11 11 11 11 11 11 11 11 10 10 10 10 10 10 10 10 10 9 9 9 9 8 8
Wind_Speed
8 9 8 7 7 7 7 6 6 5 3 1 2 3 4 5 7 8 9 12 13 12 12 13 13 13 13 13 13 13 11 10 7 6 7 10 11 13
7 8 8 7 7 7 7 7 7 6 3 1 2 3 4 6 10 11 12 15 15 15 15 15 16 16 17 17 17 17 16 16 14 13 11 9 8 8
8 8 8 8 6 6 6 6 6 5 4 3 3 4 5 7 8 9 10 10 12 16 17 17 18 18 19 19 19 19 18 18 17 16 15 14 12 10
8 8 8 7 6 5 4 5 4 4 6 8 4 4 5 7 8 8 7 10 11 16 18 18 19 19 19 20 20 20 20 19 19 18 17 16 15 14
8 8 7 6 5 4 4 4 4 5 6 9 6 4 4 6 7 8 9 7 10 14 17 18 19 20 20 19 20 19 20 19 18 17 16 15 14 14
6 5 5 4 4 3 3 4 5 7 8 9 8 6 5 5 7 7 7 6 7 9 12 14 18 19 19 18 18 18 18 18 17 16 16 15 15 14
4 3 3 1 1 2 3 5 7 8 9 9 9 7 6 6 6 5 7 6 7 7 8 7 7 8 11 14 15 16 16 16 15 15 14 13 13 13
3 2 1 2 4 7 8 8 9 10 10 9 8 8 7 6 5 6 7 6 5 5 6 6 6 7 6 9 12 14 15 15 14 13 12 12 11 12
4 3 3 4 6 8 11 11 10 10 9 8 10 9 8 6 6 6 5 5 5 5 7 8 7 8 5 9 12 14 14 14 14 13 12 12 11 11
4 4 5 6 6 9 10 10 9 8 8 8 8 8 8 6 6 6 6 6 5 5 7 8 7 7 7 7 10 13 13 13 13 13 13 12 10 11
5 6 7 8 10 12 12 12 12 10 13 15 14 12 12 10 6 5 5 6 6 4 4 6 7 7 5 5 6 9 11 11 12 13 14 14 11 11
6 6 9 11 12 12 11 12 13 11 11 11 10 10 8 7 6 3 3 5 6 4 3 4 7 6 4 4 5 7 7 7 9 11 13 15 13 9
8 7 8 14 13 12 11 10 13 12 10 9 8 7 6 5 6 6 5 4 7 5 3 3 4 4 5 5 4 5 5 4 5 5 8 12 14 11
8 8 10 15 15 13 10 13 15 12 8 7 7 6 6 7 7 7 8 9 9 7 6 5 3 3 5 6 4 4 4 4 4 3 5 9 12 14
6 12 14 15 14 11 13 14 11 6 6 7 7 7 7 8 7 6 7 7 8 9 11 9 5 4 5 5 5 4 4 4 4 4 3 3 3 4
8 13 16 13 9 10 10 8 5 4 6 7 8 8 7 6 6 5 5 6 7 6 7 10 8 7 5 5 5 4 4 3 3 3 1 2 4 7
11 10 9 8 7 7 6 5 4 4 6 8 9 8 7 6 6 6 6 6 7 6 4 4 5 7 6 5 4 3 4 3 3 1 0 1 3 4
12 10 10 9 9 9 8 7 5 6 7 8 8 7 6 6 5 5 4 6 7 6 6 5 4 3 3 5 5 3 3 3 1 1 1 1 1 4
8 9 9 8 8 8 7 7 7 6 7 7 7 6 6 6 6 5 4 5 6 6 5 4 4 5 5 5 0 3 2 2 2 2 2 2 1 2
7 9 9 8 8 8 8 7 7 7 6 7 6 6 6 6 6 5 5 6 6 6 5 3 3 3 3 3 3 3 3 3 2 1 2 2 1 2
8 8 8 8 8 8 7 8 8 7 7 6 6 6 6 6 5 5 5 6 5 5 6 5 3 2 1 1 2 4 4 7 6 4 2 2 2 1
7 6 7 7 7 7 8 8 9 7 7 6 6 6 6 5 6 7 7 5 3 5 8 6 4 3 2 3 2 4 5 5 7 10 9 7 3 3
7 6 6 8 7 7 8 9 10 8 6 6 7 6 6 5 5 6 6 5 5 6 7 7 6 4 4 4 3 2 3 5 4 4 5 14 18 17
Wind_Direction
275 274 268 266 261 257 254 245 242 248 241 135 94 73 80 83 90 92 91 85 85 84 83 82 81 80 80 82 82 81 81 86 103 138 175 195 206 215
273 272 270 266 262 257 250 243 234 229 222 144 115 112 101 102 93 95 94 87 81 83 83 83 81 79 77 78 79 80 80 81 84 89 97 111 136 155
282 282 277 269 261 257 248 238 229 213 188 136 108 109 106 110 107 105 101 92 85 83 84 83 81 80 77 76 76 77 78 79 80 81 83 86 91 101
287 288 285 280 266 259 242 231 216 192 163 145 132 121 109 116 114 111 106 99 93 86 85 83 82 81 80 79 77 76 77 78 78 80 80 81 82 84
285 285 284 277 266 248 225 207 184 163 146 139 137 124 112 117 111 109 109 107 102 99 89 84 83 81 79 79 79 79 79 78 78 77 77 77 78 78
280 285 288 275 260 234 212 182 158 143 135 133 133 131 122 122 121 123 121 122 119 109 97 97 92 85 81 80 81 82 83 83 83 82 81 78 77 76
270 286 295 330 310 207 182 153 145 138 137 135 135 133 134 139 139 141 131 128 122 125 125 122 109 94 85 80 81 84 85 85 84 83 83 84 83 80
241 232 196 134 112 105 113 125 135 142 145 141 139 141 143 141 137 139 140 142 141 152 136 123 108 94 85 85 91 92 89 86 83 82 81 81 83 85
212 197 185 146 138 122 110 104 104 115 132 141 141 143 142 146 146 143 143 136 125 142 126 115 106 97 94 104 108 101 95 90 85 79 76 77 81 88
194 175 154 146 144 136 127 111 96 91 106 116 120 121 121 128 133 137 132 118 115 124 128 125 124 116 112 117 126 117 108 97 86 76 67 65 77 94
169 155 149 143 141 137 125 117 107 94 87 96 101 106 107 106 112 129 142 135 131 129 124 124 133 130 127 131 146 134 117 105 92 80 68 58 72 103
154 147 144 140 141 137 131 128 123 122 119 112 108 113 113 106 98 109 155 147 137 123 115 118 143 142 134 145 151 157 140 124 107 87 75 65 67 82
158 152 143 139 138 133 127 126 131 130 127 124 123 122 116 98 76 55 49 106 118 101 96 109 145 149 131 140 148 161 152 149 144 118 92 80 73 70
158 151 146 141 136 133 128 133 136 134 131 130 128 126 114 94 83 74 67 73 85 83 50 52 94 105 117 127 129 133 131 134 135 138 135 119 95 85
157 143 141 139 132 129 137 146 151 149 143 139 133 120 109 109 105 95 85 80 74 73 58 44 53 65 92 110 111 118 120 114 108 108 125 144 144 123
139 135 134 136 129 127 141 157 180 169 144 129 119 116 119 129 134 134 123 109 95 81 64 57 51 55 66 79 96 99 96 102 97 85 83 142 136 123
142 139 142 145 143 146 157 171 181 153 131 124 126 135 147 157 156 153 147 139 126 125 114 91 81 85 77 63 81 83 92 92 100 98 265 189 150 134
150 149 153 157 159 160 166 170 166 149 138 135 140 149 155 152 143 147 158 147 143 145 148 153 143 128 105 49 36 49 70 72 54 301 316 34 131 130
163 158 162 164 165 164 165 163 159 149 142 143 147 148 145 141 144 155 154 134 128 130 137 149 161 172 180 158 314 339 91 81 16 13 9 354 337 150
186 170 171 168 167 166 166 160 149 144 143 144 144 144 144 145 150 153 144 134 128 129 129 115 84 65 60 108 145 196 212 148 125 30 333 327 5 92
197 177 171 166 165 162 157 147 143 146 149 144 143 146 148 148 154 149 123 123 141 147 133 114 120 135 81 69 172 159 191 204 191 188 213 268 283 259
196 175 165 160 157 155 146 144 147 149 151 148 143 148 152 154 150 138 136 153 172 140 122 130 165 186 213 239 239 169 179 199 224 225 229 226 218 231
184 172 160 157 152 147 148 151 150 151 158 154 148 157 157 151 148 144 152 172 161 142 144 158 176 201 219 217 239 228 193 202 204 199 236 235 235 245
Height
1461 1459 1458 1456 1456 1455 1455 1456 1457 1456 1457 1458 1459 1460 1460 1461 1463 1464 1464 1465 1466 1467 1467 1468 1469 1470 1470 1472 1473 1476 1478 1480 1483 1486 1489 1492 1496 1499
1456 1454 1452 1451 1450 1449 1449 1449 1450 1452 1453 1453 1455 1456 1458 1459 1460 1461 1462 1463 1464 1465 1466 1466 1467 1468 1468 1469 1471 1472 1474 1476 1479 1481 1484 1487 1490 1493
1451 1449 1447 1446 1444 1444 1443 1444 1444 1446 1448 1450 1452 1454 1456 1457 1459 1460 1462 1463 1463 1465 1466 1466 1467 1467 1468 1469 1470 1471 1473 1474 1476 1478 1481 1483 1486 1488
1445 1443 1441 1440 1439 1439 1438 1438 1439 1441 1443 1445 1449 1452 1454 1456 1458 1460 1461 1463 1464 1465 1466 1467 1468 1469 1469 1470 1470 1472 1473 1474 1476 1477 1479 1481 1483 1486
1439 1438 1436 1435 1434 1434 1434 1434 1435 1437 1439 1442 1446 1450 1453 1456 1458 1460 1462 1464 1465 1467 1468 1469 1470 1470 1471 1472 1472 1473 1474 1475 1476 1478 1479 1481 1483 1485
1434 1432 1431 1431 1430 1430 1430 1430 1431 1433 1436 1440 1444 1448 1452 1455 1458 1460 1463 1465 1467 1469 1470 1471 1472 1473 1473 1474 1474 1475 1476 1477 1478 1479 1480 1481 1483 1484
1428 1427 1426 1426 1426 1427 1427 1428 1429 1431 1435 1438 1442 1447 1451 1454 1457 1461 1463 1467 1470 1471 1472 1474 1475 1475 1476 1476 1477 1478 1478 1479 1480 1480 1482 1483 1484 1485
1423 1422 1422 1422 1423 1424 1425 1427 1428 1430 1433 1437 1441 1445 1450 1454 1458 1461 1464 1467 1470 1474 1474 1476 1477 1478 1478 1479 1479 1480 1481 1481 1481 1482 1483 1484 1485 1485
1418 1418 1418 1419 1420 1421 1423 1426 1428 1431 1434 1437 1441 1445 1450 1454 1457 1461 1465 1467 1470 1473 1476 1477 1479 1480 1481 1481 1482 1482 1482 1483 1483 1484 1484 1484 1485 1486
1413 1414 1415 1416 1418 1420 1422 1425 1428 1431 1435 1438 1442 1446 1450 1455 1458 1462 1465 1468 1471 1474 1476 1478 1480 1481 1483 1484 1484 1484 1484 1484 1484 1485 1485 1485 1486 1486
1408 1410 1411 1414 1416 1419 1421 1424 1428 1432 1436 1440 1444 1447 1452 1456 1459 1462 1466 1468 1472 1475 1477 1478 1480 1482 1484 1485 1486 1486 1486 1486 1486 1486 1486 1486 1487 1487
1405 1407 1409 1412 1415 1418 1421 1424 1428 1432 1436 1441 1445 1450 1454 1457 1460 1463 1466 1468 1471 1474 1477 1479 1481 1482 1485 1486 1487 1487 1488 1488 1488 1488 1488 1488 1488 1487
1401 1404 1407 1410 1414 1418 1422 1425 1429 1433 1438 1442 1446 1450 1454 1458 1460 1462 1465 1467 1470 1473 1476 1478 1480 1482 1484 1486 1487 1488 1489 1489 1489 1489 1489 1488 1488 1488
1398 1401 1405 1410 1414 1418 1423 1427 1431 1435 1439 1443 1447 1451 1454 1457 1460 1463 1465 1467 1470 1473 1475 1478 1480 1482 1483 1485 1487 1489 1489 1490 1489 1489 1489 1489 1488 1487
1395 1399 1404 1409 1414 1419 1424 1429 1433 1437 1441 1444 1448 1452 1454 1457 1460 1463 1466 1468 1470 1473 1476 1478 1480 1481 1483 1485 1487 1489 1490 1490 1490 1490 1489 1489 1488 1487
1394 1398 1404 1410 1415 1420 1425 1430 1434 1438 1442 1445 1448 1451 1455 1458 1461 1463 1466 1468 1470 1473 1476 1478 1480 1482 1484 1486 1488 1489 1490 1490 1490 1489 1489 1489 1488 1487
1392 1398 1404 1410 1415 1421 1426 1430 1435 1439 1442 1445 1448 1452 1456 1459 1462 1464 1467 1469 1471 1473 1476 1479 1481 1483 1485 1487 1488 1489 1489 1489 1489 1489 1489 1488 1487 1485
1393 1398 1404 1410 1415 1420 1425 1430 1435 1439 1442 1445 1449 1453 1457 1460 1463 1465 1468 1470 1472 1474 1476 1479 1481 1484 1486 1487 1488 1488 1488 1488 1488 1488 1488 1488 1486 1485
1395 1399 1405 1411 1416 1420 1425 1430 1434 1439 1442 1446 1450 1453 1457 1460 1463 1466 1468 1471 1473 1475 1477 1479 1481 1483 1484 1485 1487 1487 1487 1487 1487 1487 1486 1486 1485 1484
1395 1401 1406 1411 1416 1421 1425 1430 1434 1438 1442 1446 1450 1453 1457 1460 1463 1466 1468 1471 1473 1475 1477 1479 1481 1482 1482 1484 1485 1486 1486 1486 1485 1485 1484 1484 1483 1482
1396 1401 1406 1411 1416 1421 1425 1429 1433 1438 1442 1446 1450 1453 1457 1460 1463 1466 1468 1470 1473 1475 1476 1478 1479 1481 1482 1483 1484 1484 1485 1485 1484 1484 1482 1482 1481 1479
1396 1401 1406 1411 1416 1420 1425 1429 1433 1437 1442 1446 1449 1453 1456 1460 1462 1465 1467 1470 1472 1474 1475 1477 1479 1480 1481 1482 1482 1482 1482 1482 1482 1481 1480 1479 1478 1476
1397 1401 1406 1411 1416 1420 1425 1429 1433 1437 1441 1445 1449 1452 1456 1459 1462 1464 1466 1469 1472 1473 1475 1476 1478 1479 1480 1481 1481 1481 1481 1480 1479 1478 1477 1476 1475 1473